TimeEDT,TemperatureF,Dew PointF,Humidity,Sea Level PressureIn,VisibilityMPH,Wind Direction,Wind SpeedMPH,Gust SpeedMPH,PrecipitationIn,Events,Conditions,WindDirDegrees,DateUTC
12:08 AM,73.4,71.6,94,30.12,10.0,NE,3.5,-,N/A,,Overcast,40,2013-08-20 04:08:00
12:54 AM,73.0,72.0,96,30.12,10.0,NNE,4.6,-,N/A,,Overcast,30,2013-08-20 04:54:00
1:54 AM,73.0,72.0,96,30.10,8.0,North,4.6,-,N/A,,Overcast,10,2013-08-20 05:54:00
2:28 AM,73.4,71.6,94,30.10,7.0,Calm,Calm,-,N/A,,Overcast,0,2013-08-20 06:28:00
2:54 AM,73.0,72.0,96,30.10,6.0,Calm,Calm,-,N/A,,Overcast,0,2013-08-20 06:54:00
3:44 AM,73.4,71.6,94,30.10,1.8,NNE,3.5,-,N/A,,Overcast,20,2013-08-20 07:44:00
3:52 AM,73.4,71.6,94,30.10,1.2,NNE,3.5,-,N/A,,Overcast,20,2013-08-20 07:52:00
3:54 AM,73.0,72.0,96,30.09,1.2,NNE,3.5,-,N/A,,Overcast,20,2013-08-20 07:54:00
4:02 AM,71.6,71.6,100,30.10,0.8,NNE,3.5,-,N/A,,Mist,20,2013-08-20 08:02:00
4:54 AM,72.0,72.0,100,30.09,0.5,NNE,3.5,-,0.00,Fog,Fog,20,2013-08-20 08:54:00
5:54 AM,72.0,72.0,100,30.10,0.8,Calm,Calm,-,N/A,,Mist,0,2013-08-20 09:54:00
6:16 AM,71.6,71.6,100,30.11,1.0,Calm,Calm,-,N/A,,Mist,0,2013-08-20 10:16:00
6:24 AM,71.6,71.6,100,30.11,0.8,Calm,Calm,-,N/A,,Mist,0,2013-08-20 10:24:00
6:54 AM,72.0,72.0,100,30.12,0.8,NE,4.6,-,N/A,,Mist,40,2013-08-20 10:54:00
7:24 AM,71.6,71.6,100,30.13,1.2,NE,4.6,-,N/A,,Overcast,40,2013-08-20 11:24:00
7:37 AM,71.6,71.6,100,30.13,2.0,NNE,4.6,-,N/A,,Overcast,20,2013-08-20 11:37:00
7:54 AM,73.0,72.0,96,30.13,2.5,NNE,4.6,-,N/A,,Overcast,30,2013-08-20 11:54:00
8:01 AM,73.4,71.6,94,30.13,3.0,NE,4.6,-,N/A,,Overcast,40,2013-08-20 12:01:00
8:54 AM,73.0,72.0,96,30.14,5.0,NNE,3.5,-,N/A,,Overcast,30,2013-08-20 12:54:00
9:54 AM,75.0,73.0,94,30.16,7.0,NE,3.5,-,N/A,,Overcast,50,2013-08-20 13:54:00
10:30 AM,77.0,73.4,89,30.17,10.0,North,3.5,-,N/A,,Overcast,360,2013-08-20 14:30:00
10:54 AM,79.0,73.9,84,30.17,10.0,Calm,Calm,-,N/A,,Overcast,0,2013-08-20 14:54:00
11:01 AM,78.8,73.4,83,30.17,10.0,Calm,Calm,-,N/A,,Overcast,0,2013-08-20 15:01:00
11:13 AM,78.8,73.4,83,30.18,10.0,East,4.6,-,N/A,,Overcast,80,2013-08-20 15:13:00
11:54 AM,80.1,73.0,79,30.17,10.0,Calm,Calm,-,N/A,,Overcast,0,2013-08-20 15:54:00
12:11 PM,80.6,73.4,79,30.17,10.0,NNE,4.6,-,N/A,,Overcast,30,2013-08-20 16:11:00
12:54 PM,82.9,73.9,74,30.16,10.0,North,5.8,-,N/A,,Overcast,10,2013-08-20 16:54:00
1:17 PM,84.2,73.4,70,30.16,10.0,Variable,3.5,-,N/A,,Overcast,0,2013-08-20 17:17:00
1:51 PM,84.2,73.4,70,30.16,10.0,North,3.5,-,N/A,,Mostly Cloudy,360,2013-08-20 17:51:00
1:54 PM,84.0,73.9,72,30.15,10.0,North,4.6,-,N/A,,Mostly Cloudy,360,2013-08-20 17:54:00
2:22 PM,84.2,73.4,70,30.15,10.0,NNW,4.6,-,N/A,,Scattered Clouds,340,2013-08-20 18:22:00
2:54 PM,84.9,73.9,69,30.13,10.0,Variable,3.5,-,N/A,,Mostly Cloudy,0,2013-08-20 18:54:00
3:14 PM,87.8,73.4,62,30.12,10.0,NNW,6.9,-,N/A,,Mostly Cloudy,340,2013-08-20 19:14:00
3:54 PM,88.0,73.9,63,30.10,10.0,Variable,4.6,-,N/A,,Partly Cloudy,0,2013-08-20 19:54:00
4:54 PM,86.0,73.0,65,30.10,10.0,NNW,5.8,-,N/A,,Clear,340,2013-08-20 20:54:00
5:54 PM,79.0,73.9,84,30.11,10.0,South,6.9,-,N/A,,Overcast,180,2013-08-20 21:54:00
7:21 PM,73.4,71.6,94,30.15,3.0,SE,6.9,-,0.04,Rain-Thunderstorm,Thunderstorms and Rain,140,2013-08-20 23:21:00
7:24 PM,73.4,71.6,94,30.15,1.5,SSE,5.8,-,0.09,Rain-Thunderstorm,Heavy Thunderstorms and Rain,150,2013-08-20 23:24:00
7:27 PM,73.4,71.6,94,30.15,0.8,SSE,8.1,-,0.20,Rain-Thunderstorm,Heavy Thunderstorms and Rain,160,2013-08-20 23:27:00
7:38 PM,71.6,71.6,100,30.16,1.2,Calm,Calm,-,0.31,Rain-Thunderstorm,Heavy Thunderstorms and Rain,0,2013-08-20 23:38:00
7:41 PM,71.6,71.6,100,30.16,2.0,Calm,Calm,-,0.33,Rain-Thunderstorm,Heavy Thunderstorms and Rain,0,2013-08-20 23:41:00
7:44 PM,71.6,71.6,100,30.16,1.5,Calm,Calm,-,0.36,Rain-Thunderstorm,Heavy Rain,0,2013-08-20 23:44:00
7:54 PM,73.0,71.1,93,30.16,1.2,SW,4.6,-,0.47,Rain-Thunderstorm,Heavy Rain,230,2013-08-20 23:54:00
8:17 PM,71.6,71.6,100,30.15,2.0,Calm,Calm,-,0.18,Rain-Thunderstorm,Rain,0,2013-08-21 00:17:00
8:26 PM,73.4,71.6,94,30.14,5.0,NNW,4.6,-,0.19,Rain-Thunderstorm,Light Rain,340,2013-08-21 00:26:00
8:43 PM,73.4,71.6,94,30.13,8.0,East,5.8,-,0.21,Rain,Light Rain,100,2013-08-21 00:43:00
8:54 PM,72.0,71.1,97,30.14,10.0,South,3.5,-,0.21,,Scattered Clouds,170,2013-08-21 00:54:00
9:54 PM,73.0,71.1,93,30.16,10.0,Calm,Calm,-,N/A,,Clear,0,2013-08-21 01:54:00
10:16 PM,73.4,71.6,94,30.17,10.0,Calm,Calm,-,N/A,,Mostly Cloudy,0,2013-08-21 02:16:00
10:54 PM,73.0,72.0,96,30.17,10.0,Calm,Calm,-,N/A,,Mostly Cloudy,0,2013-08-21 02:54:00
11:02 PM,73.4,71.6,94,30.18,10.0,Calm,Calm,-,N/A,,Partly Cloudy,0,2013-08-21 03:02:00
11:54 PM,73.0,72.0,96,30.18,10.0,Calm,Calm,-,N/A,,Partly Cloudy,0,2013-08-21 03:54:00